DECAYED

OBJECT N, 51836 (Decayed)

Orbit data source: Space-Track

You're viewing an Uncataloged Satellite

Recently launched and/or uncataloged satellites may have evolving metadata. Metadata may include but not limited to: Owner, Maufacturer, Bus, Motor, and Mission.

OBJECT N, 51836 was a satellite owned by Wuhan daxue (CN) in LEO that was launched on Sun, 27 Feb 2022 UTC via a CHANG ZHENG 8 launch vehicle from the Wenchang Satellite Launch Center (WSC). Unknown objects in Earth's orbit typically refer to objects detected orbiting the Earth but have not yet been identified or cataloged. These objects could be anything from previously untracked satellites, spent rocket stages, debris from satellite collisions, or even natural meteoroids temporarily captured by Earth's gravity. This object's orbit decayed before it could be identified.

Not visible in the next 10 days
Identifier
51836, 2022-019N
Orbit
Decayed
Last TLE update
8 months ago
Origin
Flag of CNWUHAN (CN / PRC)
Manufacturer
Wuhan daxue
Mission
Decayed Commercial Imaging
Bus & Motor
QMX, Unknown motor
Mass
19.2 kg wet, 19.2 kg dry
Launch date (UTC)
2022-02-27 (3 years ago)
Launch vehicle
CHANG ZHENG 8
Launch site
Wenchang Satellite Launch Center (WSC)
Object type
Unknown
Shape & HBR
Box + 1 Pan, 0.9 m
Radar Cross Section
0.207 m², Medium (>0.1 m² and < 1m²)

Expand to show TLE details & history

TLE from 8 months ago
0 OBJECT N
1 51836U 22019N   24304.75401821  .18937816  25286-5  63928-3 0  9990
2 51836  97.4016  33.5379 0011429 290.3678  69.6395 16.43601568149073
Epoch: 2024-10-30T18:05Z
TLE epoch observation values (Epoch: 2024-10-30T18:05:47.173Z)
Latitude
-0.00003°
Longitude
82.54437°
Altitude
156.904 km
Speed
7.814 km/s
True Right ascension
02h 14m 09s
True Declination
0° 00' 00"
Sunlit
Object was in full shadow at epoch
Visualization orbit readout
Visualization observer readout
Orbital elements
Apogee altitude
160.507 km
Perigee altitude
145.578 km
Semi-major axis
6,531.179 km
Eccentricity
0.00114
Inclination
97.4016°
RAAN
33.5379°
Arg. of periapsis
290.3678°
True anomaly
Unknown
Mean anomaly
69.6395°
Eccentric anomaly
Unknown
Mean motion
4.11203 °/min
Orbital period
87.55 mins
BSTAR
0.00063928
Loading maneuver chart data...
Loading SW <> Apogee altitude chart data...
Loading historical data...
Loading historical data...
Loading historical data...
Loading historical data...
Loading historical data...
Loading historical data...
Loading historical data...

OBJECT N Visibility

Observer location: undefined°, undefined°

This satellite is decayed
Span
Click to sort rows by Start time (UTC) header in descending order
Start Az.
Max El. time (UTC)
Max El. Az.
Max El.
End time (UTC)
End Az.
|